一网星座-0306星 (ONEWEB-0306 )

导读 | 豆包AI

ONEWEB-0306是英国OneWeb低轨互联网星座中的一颗通信卫星,于2021年9月14日在协调世界时08:00发射升空。作为OneWeb全球宽带卫星网络的组成部分,它运行在近地轨道,旨在为全球偏远地区提供高速互联网接入服务。该卫星参与构建覆盖全球的卫星互联网基础设施,推动全球互联互通,助力缩小数字鸿沟。目前它已进入预定轨道,为OneWeb星座的组网运营提供支持,服务全球网络连接需求。

基本信息
目录编号:
49188
目录名称:
ONEWEB-0306
国际标识:
2021-083C
轨道中心:
EARTH
卫星名称:
一网星座-0306星
卫星全名:
一网星座-0306星 (ONEWEB-0306 )
卫星状态:
在轨 (已飞行1642 天)
发射日期:
2021-09-14 UTC
国别 :
英国 (GB)
星等 :
--
轨道信息
数据来源 国际轨道数据
星历时间: 2026-03-14T02:22:30+0800
19小时前
查看轨道信息
半长轴: 7567.881km
偏心率: 0.0001987
轨道倾角: 87.925°
近地点辐角 83.601°
升交点赤经 354.396°
平近点角 276.534°
近地点: 1188.24km
远地点: 1191.248km
周期: 109.200分钟
每日圈数: 13.18686
详细信息
平衡模式:
三轴稳定
覆盖范围:
全球
运营商:
一网卫星公司
运营商所在国:
英国
制造商(研发单位):
一网卫星公司
制造商所在国:
英国
使用方式:
暂无
卫星简介
OneWeb卫星网络由648颗重约125公斤的微型卫星组成,运行在1200公里的轨道上。 每颗卫星都能够提供至少每秒8千兆位的吞吐量,以使用其高吞吐量的Ku频段有效载荷为家庭和移动平台提供互联网接入。该卫星仍在工作。
2D轨道图
3D轨道图
轨道高度分析图
轨道倾角分析图
轨道综合分析图
查看轨道综合分析图